レモン彗星

C/2017 F1 ( Lemmon )

English version
Home page
Updated on October 8, 2017

---------------------------------------------------------------------

・ プロフィール

発見日 2017年3月20日
発見光度 21.7等
発見者 G. J. Leonard (Mount Lemmon)

・ 写真集

・ 軌道要素

Epoch 2017 Nov. 23.0 TT = JDT 2458080.5
T 2017 Dec. 8.87472 TT                                  MPCW
q   4.4629640            (2000.0)            P               Q
z  -0.0000051      Peri.   66.04210     -0.10121007     +0.97425528
 +/-0.0002161      Node   158.65652     +0.58478859     -0.10555710
e   1.0000228      Incl.  146.39220     +0.80484708     +0.19920931
From 64 observations 2017 Mar. 20-May 22, mean residual 0".5.

・ 光度変化

        m1 = 10.5 + 5 logΔ + 10.0 log r

---------------------------------------------------------------------

軌道要素はM.P.E.C. 2017-L52に掲載されたものです。
光度グラフはComet for Windowsで作成したものです。

---------------------------------------------------------------------

Copyright(C) Seiichi Yoshida (comet@aerith.net). All rights reserved.